Main page
METAR-TAF:

METAR-TAF

Airports :

Río Amazonas Airport

Shell Mera, Ecuador

latitude: 01-30-19S, longitude: 078-03-46W, elevation: 1056 m

Current weather observation

The report was made 6 hours and 56 minutes ago, at 23:00 UTC
Wind 2 kt from the South
Temperature 22°C
Humidity 83%
Pressure 1015 hPa
Visibility 10 km or more
Scattered clouds at a height of 2300 ft
Scattered clouds at a height of 10000 ft

METAR: SESM 242300Z 18002KT 9999 SCT023 SCT100 22/19 Q1015 RMK A2998

Time: 00:56 (05:56 UTC)


TAF: missing

Weather observations and forecasts of more than 4000 airports (METAR and TAF reports).

The available stations are represented by yellow and red dots on the map.

Hover mouse over dot to see the name of the station.

Then click to see weather observations and forecasts.

To change the map : click on the green buttons with a black cross to zoom in, on the green button with a dash to zoom out, or on the green arrows for adjacent maps.


METAR-TAF: